Location: ??????
(30.5519°N, 47.7720°E)
Time: 17:34:50
(UTC+00:00)

CZ-4B R/B - Pass Details

Date: 24 January 2021
Orbit: 387 x 458 km, 97.6° (Epoch: 02 March)

Event Time Altitude Azimuth Distance (km) Brightness Sun altitude
Rises 15:17:13 0° 355° (N) 2,421 5.0 -12.9°
Reaches altitude 10° 15:19:33 10° 340° (NNW) 1,535 4.2 -13.4°
Maximum altitude 15:22:09 22° 287° (WNW) 980 3.9 -13.9°
Drops below altitude 10° 15:24:41 10° 234° (SW) 1,493 5.2 -14.4°
Sets 15:26:55 0° 219° (SW) 2,337 5.9 -14.9°
